| time (UTC) | temp F | wind direction | speed MPH | gust MPH | rain 1hr in | rain 24hr in | rain mn in | humidity % | barometer mb |
| 20260507141731 | 68 | 220 | 0.0 | 0.0 | 0.00 | 0.00 | 0.00 | 32 | 1015.7 |
| 20260507141232 | 66 | 220 | 0.0 | 0.0 | 0.00 | 0.00 | 0.00 | 34 | 1015.7 |
| 20260507140733 | 65 | 220 | 0.0 | 0.0 | 0.00 | 0.00 | 0.00 | 36 | 1015.7 |
| 20260507140727 | 64 | 220 | 0.0 | 0.0 | 0.00 | 0.00 | 0.00 | 37 | 1015.7 |
| 20260507140001 | 64 | 221 | 0.0 | 0.0 | 0.00 | 0.00 | 0.00 | 36 | 1015.7 |
| 20260507135231 | 63 | 221 | 0.0 | 0.0 | 0.00 | 0.00 | 0.00 | 36 | 1015.7 |
| 20260507134731 | 62 | 220 | 0.0 | 1.0 | 0.00 | 0.00 | 0.00 | 40 | 1015.7 |
| 20260507134230 | 61 | 220 | 0.0 | 1.0 | 0.00 | 0.00 | 0.00 | 41 | 1015.7 |
| 20260507133731 | 61 | 221 | 0.0 | 1.0 | 0.00 | 0.00 | 0.00 | 42 | 1015.5 |
| 20260507133230 | 60 | 220 | 0.0 | 1.0 | 0.00 | 0.00 | 0.00 | 44 | 1015.4 |
| 20260507132730 | 60 | 172 | 0.0 | 0.0 | 0.00 | 0.00 | 0.00 | 43 | 1015.4 |
| 20260507132231 | 59 | 125 | 0.0 | 0.0 | 0.00 | 0.00 | 0.00 | 44 | 1015.4 |
| 20260507131732 | 59 | 124 | 0.0 | 0.0 | 0.00 | 0.00 | 0.00 | 44 | 1015.4 |
| 20260507131232 | 59 | 125 | 0.0 | 0.0 | 0.00 | 0.00 | 0.00 | 43 | 1015.3 |
| 20260507130731 | 58 | 124 | 0.0 | 0.0 | 0.00 | 0.00 | 0.00 | 44 | 1015.3 |
| 20260507130230 | 57 | 125 | 0.0 | 0.0 | 0.00 | 0.00 | 0.00 | 47 | 1015.2 |
| 20260507125955 | 56 | 122 | 0.0 | 0.0 | 0.00 | 0.00 | 0.00 | 48 | 1015.3 |
| 20260507125230 | 55 | 110 | 0.0 | 0.0 | 0.00 | 0.00 | 0.00 | 50 | 1015.2 |
| 20260507124730 | 54 | 110 | 0.0 | 0.0 | 0.00 | 0.00 | 0.00 | 52 | 1015.2 |
| 20260507124230 | 53 | 110 | 0.0 | 0.0 | 0.00 | 0.00 | 0.00 | 53 | 1015.2 |
| 20260507124000 | 53 | 110 | 0.0 | 0.0 | 0.00 | 0.00 | 0.00 | 54 | 1015.2 |
| 20260507123231 | 53 | 110 | 0.0 | 0.0 | 0.00 | 0.00 | 0.00 | 56 | 1015.2 |
| 20260507122730 | 53 | 110 | 0.0 | 0.0 | 0.00 | 0.00 | 0.00 | 56 | 1015.2 |
| 20260507122229 | 53 | 110 | 0.0 | 0.0 | 0.00 | 0.00 | 0.00 | 55 | 1015.1 |
| 20260507121950 | 53 | 110 | 0.0 | 0.0 | 0.00 | 0.00 | 0.00 | 55 | 1015.1 |
| 20260507121226 | 53 | 110 | 0.0 | 0.0 | 0.00 | 0.00 | 0.00 | 56 | 1015.1 |
| 20260507120722 | 54 | 110 | 0.0 | 0.0 | 0.00 | 0.00 | 0.00 | 56 | 1015.0 |
| 20260507120221 | 54 | 110 | 0.0 | 0.0 | 0.00 | 0.00 | 0.00 | 56 | 1015.1 |
| 20260507115938 | 54 | 110 | 0.0 | 1.0 | 0.00 | 0.00 | 0.00 | 55 | 1015.1 |
| 20260507115210 | 54 | 63 | 0.0 | 1.0 | 0.00 | 0.00 | 0.00 | 55 | 1015.1 |
| 20260507114703 | 54 | 63 | 0.0 | 1.0 | 0.00 | 0.00 | 0.00 | 55 | 1015.2 |
| 20260507114204 | 54 | 63 | 0.0 | 2.0 | 0.00 | 0.00 | 0.00 | 55 | 1015.2 |
| 20260507113700 | 54 | 27 | 0.0 | 2.0 | 0.00 | 0.00 | 0.00 | 55 | 1015.2 |
| 20260507113200 | 55 | 27 | 0.0 | 2.0 | 0.00 | 0.00 | 0.00 | 53 | 1015.2 |
| 20260507112656 | 55 | 22 | 0.0 | 2.0 | 0.00 | 0.00 | 0.00 | 50 | 1015.1 |
| 20260507112156 | 56 | 22 | 0.0 | 2.0 | 0.00 | 0.00 | 0.00 | 48 | 1015.1 |
| 20260507111653 | 56 | 359 | 0.0 | 2.0 | 0.00 | 0.00 | 0.00 | 46 | 1015.1 |
| 20260507111153 | 57 | 146 | 0.0 | 1.0 | 0.00 | 0.00 | 0.00 | 43 | 1015.1 |
| 20260507110649 | 57 | 146 | 0.0 | 2.0 | 0.00 | 0.00 | 0.00 | 42 | 1015.1 |
| 20260507105646 | 57 | 158 | 2.0 | 4.0 | 0.00 | 0.00 | 0.00 | 42 | 1015.0 |
| 20260507105147 | 57 | 149 | 3.0 | 4.0 | 0.00 | 0.00 | 0.00 | 42 | 1015.0 |
| 20260507104647 | 57 | 138 | 3.0 | 5.0 | 0.00 | 0.00 | 0.00 | 42 | 1015.0 |
| 20260507104146 | 57 | 153 | 2.0 | 5.0 | 0.00 | 0.00 | 0.00 | 43 | 1015.0 |
| 20260507103647 | 57 | 146 | 2.0 | 4.0 | 0.00 | 0.00 | 0.00 | 43 | 1015.1 |
| 20260507103630 | 57 | 146 | 1.0 | 4.0 | 0.00 | 0.00 | 0.00 | 44 | 1015.1 |
| 20260507102639 | 56 | 149 | 0.0 | 3.0 | 0.00 | 0.00 | 0.00 | 44 | 1015.1 |
| 20260507102134 | 56 | 217 | 0.0 | 2.0 | 0.00 | 0.00 | 0.00 | 45 | 1015.1 |
| 20260507101628 | 57 | 217 | 0.0 | 2.0 | 0.00 | 0.00 | 0.00 | 46 | 1015.1 |
| 20260507101118 | 57 | 25 | 0.0 | 0.0 | 0.00 | 0.00 | 0.00 | 46 | 1015.1 |
| 20260507100828 | 57 | 8 | 0.0 | 0.0 | 0.00 | 0.00 | 0.00 | 46 | 1015.1 |
| 20260507100105 | 57 | 8 | 0.0 | 0.0 | 0.00 | 0.00 | 0.00 | 46 | 1015.1 |
| 20260507095819 | 57 | 8 | 0.0 | 0.0 | 0.00 | 0.00 | 0.00 | 46 | 1015.1 |
| 20260507095050 | 57 | 8 | 0.0 | 0.0 | 0.00 | 0.00 | 0.00 | 47 | 1015.2 |
| 20260507094544 | 58 | 8 | 0.0 | 0.0 | 0.00 | 0.00 | 0.00 | 46 | 1015.2 |
| 20260507094034 | 58 | 8 | 0.0 | 0.0 | 0.00 | 0.00 | 0.00 | 45 | 1015.2 |
| 20260507093528 | 59 | 8 | 0.0 | 3.0 | 0.00 | 0.00 | 0.00 | 44 | 1015.2 |
| 20260507093022 | 59 | 8 | 0.0 | 3.0 | 0.00 | 0.00 | 0.00 | 42 | 1015.2 |
| 20260507092516 | 60 | 352 | 0.0 | 1.0 | 0.00 | 0.00 | 0.00 | 40 | 1015.2 |
| 20260507092012 | 61 | 27 | 0.0 | 2.0 | 0.00 | 0.00 | 0.00 | 35 | 1015.3 |
| 20260507091510 | 61 | 165 | 1.0 | 3.0 | 0.00 | 0.00 | 0.00 | 34 | 1015.2 |
| 20260507091010 | 62 | 179 | 1.0 | 3.0 | 0.00 | 0.00 | 0.00 | 33 | 1015.3 |
| 20260507090512 | 62 | 139 | 1.0 | 3.0 | 0.00 | 0.00 | 0.00 | 33 | 1015.3 |
| 20260507090009 | 62 | 167 | 1.0 | 3.0 | 0.00 | 0.00 | 0.00 | 33 | 1015.3 |
| 20260507085508 | 62 | 136 | 2.0 | 4.0 | 0.00 | 0.00 | 0.00 | 32 | 1015.3 |
| 20260507085009 | 63 | 134 | 3.0 | 5.0 | 0.00 | 0.00 | 0.00 | 32 | 1015.4 |
| 20260507084506 | 63 | 141 | 3.0 | 7.0 | 0.00 | 0.00 | 0.00 | 31 | 1015.4 |
| 20260507084008 | 63 | 129 | 4.0 | 7.0 | 0.00 | 0.00 | 0.00 | 31 | 1015.4 |
| 20260507083509 | 63 | 122 | 4.0 | 8.0 | 0.00 | 0.00 | 0.00 | 31 | 1015.5 |
| 20260507083005 | 63 | 141 | 4.0 | 8.0 | 0.00 | 0.00 | 0.00 | 31 | 1015.5 |
| 20260507082507 | 63 | 156 | 4.0 | 7.0 | 0.00 | 0.00 | 0.00 | 31 | 1015.5 |
| 20260507082007 | 63 | 137 | 3.0 | 6.0 | 0.00 | 0.00 | 0.00 | 32 | 1015.5 |
| 20260507081507 | 63 | 148 | 3.0 | 5.0 | 0.00 | 0.00 | 0.00 | 32 | 1015.5 |
| 20260507081003 | 63 | 130 | 3.0 | 6.0 | 0.00 | 0.00 | 0.00 | 31 | 1015.5 |
| 20260507080500 | 63 | 125 | 3.0 | 6.0 | 0.00 | 0.00 | 0.00 | 31 | 1015.5 |
| 20260507075956 | 63 | 176 | 3.0 | 6.0 | 0.00 | 0.00 | 0.00 | 31 | 1015.4 |
| 20260507075453 | 63 | 157 | 3.0 | 6.0 | 0.00 | 0.00 | 0.00 | 31 | 1015.5 |
| 20260507074951 | 63 | 162 | 3.0 | 6.0 | 0.00 | 0.00 | 0.00 | 31 | 1015.5 |
| 20260507074451 | 63 | 133 | 3.0 | 6.0 | 0.00 | 0.00 | 0.00 | 31 | 1015.5 |
| 20260507073952 | 63 | 141 | 3.0 | 5.0 | 0.00 | 0.00 | 0.00 | 31 | 1015.4 |
| 20260507073452 | 63 | 148 | 2.0 | 4.0 | 0.00 | 0.00 | 0.00 | 32 | 1015.3 |
| 20260507072952 | 63 | 138 | 2.0 | 5.0 | 0.00 | 0.00 | 0.00 | 32 | 1015.4 |
| 20260507072452 | 63 | 160 | 3.0 | 5.0 | 0.00 | 0.00 | 0.00 | 32 | 1015.5 |
| 20260507071952 | 63 | 151 | 2.0 | 5.0 | 0.00 | 0.00 | 0.00 | 32 | 1015.4 |
| 20260507071453 | 63 | 134 | 1.0 | 5.0 | 0.00 | 0.00 | 0.00 | 32 | 1015.5 |
| 20260507070954 | 63 | 179 | 1.0 | 4.0 | 0.00 | 0.00 | 0.00 | 32 | 1015.4 |
| 20260507070452 | 63 | 231 | 1.0 | 4.0 | 0.00 | 0.00 | 0.00 | 32 | 1015.4 |
| 20260507065954 | 63 | 242 | 2.0 | 5.0 | 0.00 | 0.00 | 0.00 | 32 | 1015.4 |
| 20260507065449 | 64 | 145 | 2.0 | 5.0 | 0.00 | 0.00 | 0.00 | 32 | 1015.4 |
| 20260507064947 | 63 | 220 | 1.0 | 4.0 | 0.00 | 0.00 | 0.00 | 32 | 1015.5 |
| 20260507064446 | 64 | 212 | 1.0 | 3.0 | 0.00 | 0.00 | 0.00 | 32 | 1015.5 |
| 20260507063947 | 64 | 148 | 1.0 | 6.0 | 0.00 | 0.00 | 0.00 | 32 | 1015.4 |
| 20260507063447 | 64 | 147 | 2.0 | 6.0 | 0.00 | 0.00 | 0.00 | 31 | 1015.4 |
| 20260507062947 | 64 | 160 | 2.0 | 5.0 | 0.00 | 0.00 | 0.00 | 32 | 1015.4 |
| 20260507062453 | 64 | 136 | 1.0 | 3.0 | 0.00 | 0.00 | 0.00 | 33 | 1015.4 |
| 20260507061951 | 64 | 134 | 1.0 | 3.0 | 0.00 | 0.00 | 0.00 | 33 | 1015.4 |
| 20260507061712 | 64 | 151 | 1.0 | 3.0 | 0.00 | 0.00 | 0.00 | 34 | 1015.3 |
| 20260507060952 | 64 | 133 | 1.0 | 3.0 | 0.00 | 0.00 | 0.00 | 34 | 1015.4 |
| 20260507060446 | 63 | 166 | 1.0 | 3.0 | 0.00 | 0.00 | 0.00 | 35 | 1015.3 |
| 20260507060208 | 63 | 148 | 0.0 | 0.0 | 0.00 | 0.00 | 0.00 | 35 | 1015.3 |
| 20260507055446 | 64 | 148 | 0.0 | 1.0 | 0.00 | 0.00 | 0.00 | 34 | 1015.2 |
| 20260507054945 | 64 | 148 | 0.0 | 2.0 | 0.00 | 0.00 | 0.00 | 33 | 1015.2 |
| 20260507054700 | 64 | 157 | 0.0 | 2.0 | 0.00 | 0.00 | 0.00 | 33 | 1015.1 |
| 20260507053941 | 64 | 146 | 0.0 | 0.0 | 0.00 | 0.00 | 0.00 | 34 | 1015.1 |
| 20260507053440 | 64 | 219 | 0.0 | 0.0 | 0.00 | 0.00 | 0.00 | 35 | 1015.1 |
| 20260507052939 | 64 | 219 | 0.0 | 0.0 | 0.00 | 0.00 | 0.00 | 34 | 1015.1 |
| 20260507052704 | 65 | 219 | 0.0 | 0.0 | 0.00 | 0.00 | 0.00 | 34 | 1015.1 |
| 20260507051940 | 65 | 219 | 0.0 | 0.0 | 0.00 | 0.00 | 0.00 | 33 | 1015.1 |
| 20260507051436 | 65 | 231 | 0.0 | 0.0 | 0.00 | 0.00 | 0.00 | 32 | 1015.1 |
| 20260507051205 | 65 | 241 | 0.0 | 0.0 | 0.00 | 0.00 | 0.00 | 32 | 1015.1 |
| 20260507050437 | 65 | 241 | 0.0 | 0.0 | 0.00 | 0.00 | 0.00 | 31 | 1015.0 |
| 20260507045933 | 66 | 241 | 0.0 | 0.0 | 0.00 | 0.00 | 0.00 | 30 | 1015.0 |
| 20260507045432 | 66 | 241 | 0.0 | 0.0 | 0.00 | 0.00 | 0.00 | 30 | 1015.0 |
| 20260507044933 | 66 | 241 | 0.0 | 0.0 | 0.00 | 0.00 | 0.00 | 30 | 1015.0 |
| 20260507044650 | 65 | 241 | 0.0 | 0.0 | 0.00 | 0.00 | 0.00 | 28 | 1014.9 |
| 20260507043930 | 66 | 240 | 0.0 | 0.0 | 0.00 | 0.00 | 0.00 | 27 | 1014.9 |
| 20260507043432 | 66 | 241 | 0.0 | 0.0 | 0.00 | 0.00 | 0.00 | 27 | 1014.9 |
| 20260507042929 | 67 | 241 | 0.0 | 0.0 | 0.00 | 0.00 | 0.00 | 26 | 1014.9 |
| 20260507042427 | 68 | 241 | 0.0 | 0.0 | 0.00 | 0.00 | 0.00 | 25 | 1014.9 |
| 20260507041924 | 69 | 240 | 0.0 | 3.0 | 0.00 | 0.00 | 0.00 | 25 | 1014.8 |
| 20260507041421 | 69 | 241 | 0.0 | 3.0 | 0.00 | 0.00 | 0.00 | 25 | 1014.8 |
| 20260507040922 | 69 | 45 | 0.0 | 0.0 | 0.00 | 0.00 | 0.00 | 25 | 1014.8 |
| 20260507040420 | 69 | 45 | 0.0 | 0.0 | 0.00 | 0.00 | 0.00 | 25 | 1014.7 |
| 20260507035921 | 70 | 45 | 0.0 | 2.0 | 0.00 | 0.00 | 0.00 | 24 | 1014.7 |
| 20260507035644 | 70 | 45 | 0.0 | 2.0 | 0.00 | 0.00 | 0.00 | 23 | 1014.6 |
| 20260507035144 | 71 | 11 | 1.0 | 5.0 | 0.00 | 0.00 | 0.00 | 22 | 1014.6 |
| 20260507034417 | 71 | 266 | 2.0 | 5.0 | 0.00 | 0.00 | 0.00 | 21 | 1014.6 |
| 20260507033913 | 71 | 286 | 3.0 | 7.0 | 0.00 | 0.00 | 0.00 | 21 | 1014.5 |
| 20260507033418 | 71 | 283 | 2.0 | 7.0 | 0.00 | 0.00 | 0.00 | 21 | 1014.4 |
| 20260507032915 | 71 | 272 | 2.0 | 7.0 | 0.00 | 0.00 | 0.00 | 21 | 1014.4 |
| 20260507032416 | 71 | 266 | 2.0 | 5.0 | 0.00 | 0.00 | 0.00 | 21 | 1014.2 |
| 20260507031906 | 71 | 262 | 2.0 | 4.0 | 0.00 | 0.00 | 0.00 | 21 | 1014.1 |
| 20260507031401 | 72 | 274 | 2.0 | 5.0 | 0.00 | 0.00 | 0.00 | 21 | 1014.2 |
| 20260507030854 | 72 | 274 | 2.0 | 5.0 | 0.00 | 0.00 | 0.00 | 21 | 1014.1 |
| 20260507030353 | 72 | 285 | 3.0 | 5.0 | 0.00 | 0.00 | 0.00 | 20 | 1014.1 |
| 20260507025853 | 72 | 262 | 2.0 | 6.0 | 0.00 | 0.00 | 0.00 | 20 | 1014.0 |
| 20260507025614 | 73 | 294 | 3.0 | 7.0 | 0.00 | 0.00 | 0.00 | 21 | 1014.0 |
| 20260507025344 | 73 | 285 | 3.0 | 7.0 | 0.00 | 0.00 | 0.00 | 20 | 1013.9 |
| 20260507024357 | 73 | 278 | 3.0 | 7.0 | 0.00 | 0.00 | 0.00 | 20 | 1013.9 |
| 20260507024122 | 73 | 295 | 3.0 | 7.0 | 0.00 | 0.00 | 0.00 | 20 | 1013.9 |
| 20260507023617 | 73 | 276 | 2.0 | 7.0 | 0.00 | 0.00 | 0.00 | 21 | 1013.9 |
| 20260507022857 | 73 | 295 | 2.0 | 7.0 | 0.00 | 0.00 | 0.00 | 21 | 1013.8 |
| 20260507022350 | 74 | 259 | 3.0 | 7.0 | 0.00 | 0.00 | 0.00 | 21 | 1013.8 |
| 20260507021853 | 74 | 281 | 3.0 | 6.0 | 0.00 | 0.00 | 0.00 | 21 | 1013.7 |
| 20260507021357 | 74 | 252 | 3.0 | 6.0 | 0.00 | 0.00 | 0.00 | 21 | 1013.7 |
| 20260507021126 | 74 | 278 | 2.0 | 5.0 | 0.00 | 0.00 | 0.00 | 21 | 1013.7 |
| 20260507020354 | 75 | 270 | 3.0 | 6.0 | 0.00 | 0.00 | 0.00 | 20 | 1013.7 |
| 20260507015852 | 75 | 278 | 3.0 | 6.0 | 0.00 | 0.00 | 0.00 | 20 | 1013.7 |
| 20260507015353 | 76 | 258 | 3.0 | 6.0 | 0.00 | 0.00 | 0.00 | 20 | 1013.7 |
| 20260507015118 | 76 | 283 | 3.0 | 6.0 | 0.00 | 0.00 | 0.00 | 20 | 1013.6 |
| 20260507014353 | 77 | 302 | 2.0 | 5.0 | 0.00 | 0.00 | 0.00 | 20 | 1013.6 |
| 20260507014336 | 77 | 294 | 2.0 | 9.0 | 0.00 | 0.00 | 0.00 | 20 | 1013.7 |
| 20260507013614 | 77 | 302 | 3.0 | 9.0 | 0.00 | 0.00 | 0.00 | 20 | 1013.6 |
| 20260507012854 | 77 | 290 | 4.0 | 8.0 | 0.00 | 0.00 | 0.00 | 20 | 1013.6 |
| 20260507012353 | 77 | 238 | 4.0 | 8.0 | 0.00 | 0.00 | 0.00 | 20 | 1013.6 |
| 20260507012111 | 78 | 240 | 2.0 | 7.0 | 0.00 | 0.00 | 0.00 | 20 | 1013.5 |
| 20260507011609 | 78 | 305 | 3.0 | 7.0 | 0.00 | 0.00 | 0.00 | 21 | 1013.5 |
| 20260507011113 | 78 | 252 | 4.0 | 7.0 | 0.00 | 0.00 | 0.00 | 20 | 1013.6 |
| 20260507010346 | 78 | 285 | 4.0 | 7.0 | 0.00 | 0.00 | 0.00 | 20 | 1013.6 |
| 20260507005846 | 78 | 283 | 4.0 | 10.0 | 0.00 | 0.00 | 0.00 | 20 | 1013.6 |
| 20260507005345 | 78 | 264 | 4.0 | 10.0 | 0.00 | 0.00 | 0.00 | 20 | 1013.6 |
| 20260507004846 | 78 | 293 | 3.0 | 8.0 | 0.00 | 0.00 | 0.00 | 20 | 1013.6 |
| 20260507004347 | 78 | 293 | 3.0 | 6.0 | 0.00 | 0.00 | 0.00 | 20 | 1013.6 |
| 20260507003845 | 79 | 280 | 3.0 | 6.0 | 0.00 | 0.00 | 0.00 | 20 | 1013.6 |
| 20260507003346 | 79 | 288 | 3.0 | 6.0 | 0.00 | 0.00 | 0.00 | 20 | 1013.6 |
| 20260507003106 | 79 | 288 | 2.0 | 6.0 | 0.00 | 0.00 | 0.00 | 20 | 1013.5 |
| 20260507002345 | 79 | 319 | 2.0 | 6.0 | 0.00 | 0.00 | 0.00 | 19 | 1013.5 |
| 20260507001843 | 79 | 339 | 2.0 | 6.0 | 0.00 | 0.00 | 0.00 | 19 | 1013.5 |
| 20260507001343 | 79 | 326 | 3.0 | 7.0 | 0.00 | 0.00 | 0.00 | 19 | 1013.5 |
| 20260507000843 | 79 | 294 | 3.0 | 8.0 | 0.00 | 0.00 | 0.00 | 19 | 1013.5 |
| 20260507000344 | 80 | 291 | 3.0 | 8.0 | 0.00 | 0.00 | 0.00 | 20 | 1013.4 |
| 20260506235841 | 80 | 295 | 2.0 | 6.0 | 0.00 | 0.00 | 0.00 | 20 | 1013.5 |
| 20260506235607 | 80 | 337 | 2.0 | 4.0 | 0.00 | 0.00 | 0.00 | 19 | 1013.5 |
| 20260506234840 | 79 | 230 | 3.0 | 7.0 | 0.00 | 0.00 | 0.00 | 20 | 1013.5 |
| 20260506234340 | 79 | 314 | 3.0 | 7.0 | 0.00 | 0.00 | 0.00 | 20 | 1013.5 |
| 20260506233841 | 79 | 14 | 3.0 | 8.0 | 0.00 | 0.00 | 0.00 | 20 | 1013.5 |
| 20260506233340 | 79 | 261 | 3.0 | 8.0 | 0.00 | 0.00 | 0.00 | 20 | 1013.5 |
| 20260506232842 | 79 | 272 | 3.0 | 7.0 | 0.00 | 0.00 | 0.00 | 20 | 1013.5 |
| 20260506232335 | 80 | 326 | 2.0 | 6.0 | 0.00 | 0.00 | 0.00 | 20 | 1013.5 |
| 20260506231829 | 79 | 338 | 2.0 | 7.0 | 0.00 | 0.00 | 0.00 | 21 | 1013.6 |
| 20260506231317 | 80 | 277 | 2.0 | 8.0 | 0.00 | 0.00 | 0.00 | 21 | 1013.6 |
| 20260506230813 | 79 | 217 | 3.0 | 9.0 | 0.00 | 0.00 | 0.00 | 21 | 1013.6 |
| 20260506230307 | 79 | 281 | 3.0 | 9.0 | 0.00 | 0.00 | 0.00 | 21 | 1013.7 |
| 20260506225757 | 79 | 256 | 3.0 | 8.0 | 0.00 | 0.00 | 0.00 | 21 | 1013.8 |
| 20260506225251 | 79 | 233 | 4.0 | 10.0 | 0.00 | 0.00 | 0.00 | 21 | 1013.7 |
| 20260506224745 | 79 | 329 | 3.0 | 10.0 | 0.00 | 0.00 | 0.00 | 21 | 1013.7 |
| 20260506224235 | 79 | 273 | 2.0 | 7.0 | 0.00 | 0.00 | 0.00 | 21 | 1013.7 |
| 20260506223728 | 79 | 312 | 3.0 | 7.0 | 0.00 | 0.00 | 0.00 | 22 | 1013.8 |
| 20260506223223 | 78 | 44 | 3.0 | 7.0 | 0.00 | 0.00 | 0.00 | 22 | 1013.9 |
| 20260506222713 | 79 | 76 | 3.0 | 9.0 | 0.00 | 0.00 | 0.00 | 22 | 1013.9 |
| 20260506222208 | 79 | 246 | 4.0 | 9.0 | 0.00 | 0.00 | 0.00 | 22 | 1013.9 |
| 20260506221701 | 79 | 285 | 3.0 | 9.0 | 0.00 | 0.00 | 0.00 | 22 | 1013.9 |
| 20260506221412 | 79 | 279 | 3.0 | 8.0 | 0.00 | 0.00 | 0.00 | 23 | 1014.0 |
| 20260506220725 | 79 | 291 | 3.0 | 8.0 | 0.00 | 0.00 | 0.00 | 23 | 1014.0 |
| 20260506215629 | 79 | 303 | 2.0 | 6.0 | 0.00 | 0.00 | 0.00 | 24 | 1014.1 |
| 20260506215121 | 79 | 237 | 2.0 | 6.0 | 0.00 | 0.00 | 0.00 | 24 | 1014.2 |
| 20260506214617 | 78 | 243 | 2.0 | 6.0 | 0.00 | 0.00 | 0.00 | 24 | 1014.2 |
| 20260506214102 | 79 | 29 | 2.0 | 4.0 | 0.00 | 0.00 | 0.00 | 24 | 1014.4 |
| 20260506213556 | 78 | 64 | 2.0 | 4.0 | 0.00 | 0.00 | 0.00 | 23 | 1014.5 |
| 20260506213051 | 78 | 29 | 2.0 | 5.0 | 0.00 | 0.00 | 0.00 | 23 | 1014.6 |
| 20260506212541 | 79 | 291 | 2.0 | 6.0 | 0.00 | 0.00 | 0.00 | 22 | 1014.7 |
| 20260506212521 | 79 | 277 | 2.0 | 6.0 | 0.00 | 0.00 | 0.00 | 22 | 1014.7 |
| 20260506211529 | 78 | 223 | 2.0 | 6.0 | 0.00 | 0.00 | 0.00 | 22 | 1014.7 |
| 20260506211019 | 78 | 250 | 2.0 | 6.0 | 0.00 | 0.00 | 0.00 | 23 | 1014.7 |
| 20260506210513 | 77 | 273 | 3.0 | 7.0 | 0.00 | 0.00 | 0.00 | 24 | 1014.8 |
| 20260506210230 | 77 | 280 | 3.0 | 8.0 | 0.00 | 0.00 | 0.00 | 25 | 1014.8 |
| 20260506205457 | 77 | 265 | 3.0 | 8.0 | 0.00 | 0.00 | 0.00 | 25 | 1014.9 |
| 20260506204951 | 76 | 243 | 5.0 | 11.0 | 0.00 | 0.00 | 0.00 | 25 | 1015.0 |
| 20260506204451 | 77 | 333 | 4.0 | 11.0 | 0.00 | 0.00 | 0.00 | 25 | 1015.1 |
| 20260506203947 | 77 | 308 | 3.0 | 7.0 | 0.00 | 0.00 | 0.00 | 25 | 1015.1 |
| 20260506203448 | 77 | 276 | 3.0 | 6.0 | 0.00 | 0.00 | 0.00 | 25 | 1015.1 |
| 20260506202948 | 77 | 200 | 3.0 | 6.0 | 0.00 | 0.00 | 0.00 | 26 | 1015.2 |
| 20260506202446 | 78 | 280 | 3.0 | 8.0 | 0.00 | 0.00 | 0.00 | 25 | 1015.2 |
| 20260506201946 | 77 | 221 | 3.0 | 8.0 | 0.00 | 0.00 | 0.00 | 24 | 1015.3 |
| 20260506201711 | 77 | 212 | 2.0 | 8.0 | 0.00 | 0.00 | 0.00 | 25 | 1015.3 |
| 20260506200945 | 77 | 207 | 2.0 | 8.0 | 0.00 | 0.00 | 0.00 | 25 | 1015.3 |
| 20260506200449 | 77 | 242 | 3.0 | 8.0 | 0.00 | 0.00 | 0.00 | 25 | 1015.3 |
| 20260506195949 | 77 | 334 | 4.0 | 8.0 | 0.00 | 0.00 | 0.00 | 24 | 1015.5 |
| 20260506195444 | 77 | 248 | 4.0 | 8.0 | 0.00 | 0.00 | 0.00 | 25 | 1015.5 |
| 20260506194945 | 77 | 245 | 3.0 | 7.0 | 0.00 | 0.00 | 0.00 | 24 | 1015.5 |
| 20260506194447 | 76 | 249 | 2.0 | 9.0 | 0.00 | 0.00 | 0.00 | 24 | 1015.7 |
| 20260506193945 | 76 | 267 | 2.0 | 9.0 | 0.00 | 0.00 | 0.00 | 23 | 1015.8 |
| 20260506193441 | 76 | 262 | 2.0 | 5.0 | 0.00 | 0.00 | 0.00 | 24 | 1015.8 |
| 20260506192941 | 76 | 19 | 2.0 | 8.0 | 0.00 | 0.00 | 0.00 | 23 | 1015.9 |
| 20260506192934 | 75 | 15 | 3.0 | 8.0 | 0.00 | 0.00 | 0.00 | 22 | 1015.9 |
| 20260506191944 | 75 | 210 | 3.0 | 8.0 | 0.00 | 0.00 | 0.00 | 23 | 1016.1 |
| 20260506191443 | 75 | 265 | 2.0 | 8.0 | 0.00 | 0.00 | 0.00 | 23 | 1016.1 |
| 20260506190942 | 75 | 278 | 1.0 | 5.0 | 0.00 | 0.00 | 0.00 | 24 | 1016.1 |
| 20260506190707 | 74 | 278 | 2.0 | 5.0 | 0.00 | 0.00 | 0.00 | 23 | 1016.2 |
| 20260506185941 | 74 | 310 | 3.0 | 7.0 | 0.00 | 0.00 | 0.00 | 23 | 1016.2 |
| 20260506185442 | 75 | 314 | 3.0 | 7.0 | 0.00 | 0.00 | 0.00 | 25 | 1016.2 |
| 20260506184941 | 75 | 262 | 2.0 | 5.0 | 0.00 | 0.00 | 0.00 | 23 | 1016.2 |
| 20260506184442 | 74 | 85 | 2.0 | 4.0 | 0.00 | 0.00 | 0.00 | 22 | 1016.3 |
| 20260506183942 | 74 | 222 | 2.0 | 5.0 | 0.00 | 0.00 | 0.00 | 21 | 1016.3 |
| 20260506183441 | 74 | 288 | 2.0 | 5.0 | 0.00 | 0.00 | 0.00 | 23 | 1016.4 |
| 20260506182939 | 74 | 278 | 2.0 | 5.0 | 0.00 | 0.00 | 0.00 | 25 | 1016.4 |
| 20260506182438 | 73 | 275 | 2.0 | 8.0 | 0.00 | 0.00 | 0.00 | 25 | 1016.5 |
| 20260506182151 | 73 | 324 | 2.0 | 8.0 | 0.00 | 0.00 | 0.00 | 27 | 1016.5 |
| 20260506181431 | 73 | 273 | 2.0 | 6.0 | 0.00 | 0.00 | 0.00 | 28 | 1016.6 |
| 20260506180931 | 73 | 245 | 3.0 | 6.0 | 0.00 | 0.00 | 0.00 | 28 | 1016.6 |
| 20260506180432 | 72 | 294 | 2.0 | 8.0 | 0.00 | 0.00 | 0.00 | 28 | 1016.7 |
| 20260506180152 | 73 | 331 | 1.0 | 8.0 | 0.00 | 0.00 | 0.00 | 28 | 1016.6 |
| 20260506175431 | 73 | 84 | 1.0 | 4.0 | 0.00 | 0.00 | 0.00 | 28 | 1016.7 |
| 20260506174932 | 72 | 35 | 3.0 | 9.0 | 0.00 | 0.00 | 0.00 | 28 | 1016.7 |
| 20260506174429 | 72 | 313 | 3.0 | 9.0 | 0.00 | 0.00 | 0.00 | 29 | 1016.7 |
| 20260506173927 | 72 | 281 | 1.0 | 7.0 | 0.00 | 0.00 | 0.00 | 30 | 1016.7 |
| 20260506173428 | 73 | 351 | 1.0 | 4.0 | 0.00 | 0.00 | 0.00 | 31 | 1016.7 |
| 20260506172927 | 72 | 150 | 1.0 | 4.0 | 0.00 | 0.00 | 0.00 | 32 | 1016.7 |
| 20260506172427 | 71 | 101 | 1.0 | 6.0 | 0.00 | 0.00 | 0.00 | 35 | 1016.7 |
| 20260506171928 | 71 | 6 | 1.0 | 6.0 | 0.00 | 0.00 | 0.00 | 33 | 1016.7 |
| 20260506171426 | 71 | 59 | 1.0 | 4.0 | 0.00 | 0.00 | 0.00 | 32 | 1016.7 |
| 20260506171149 | 71 | 141 | 1.0 | 4.0 | 0.00 | 0.00 | 0.00 | 35 | 1016.6 |
| 20260506170424 | 70 | 102 | 1.0 | 6.0 | 0.00 | 0.00 | 0.00 | 34 | 1016.6 |
| 20260506170400 | 69 | 219 | 2.0 | 6.0 | 0.00 | 0.00 | 0.00 | 37 | 1016.7 |
| 20260506165409 | 69 | 6 | 2.0 | 6.0 | 0.00 | 0.00 | 0.00 | 36 | 1016.6 |
| 20260506164910 | 69 | 10 | 2.0 | 5.0 | 0.00 | 0.00 | 0.00 | 37 | 1016.6 |
| 20260506164640 | 68 | 19 | 1.0 | 5.0 | 0.00 | 0.00 | 0.00 | 37 | 1016.6 |
| 20260506163908 | 68 | 26 | 2.0 | 5.0 | 0.00 | 0.00 | 0.00 | 38 | 1016.7 |
| 20260506163406 | 68 | 225 | 2.0 | 6.0 | 0.00 | 0.00 | 0.00 | 38 | 1016.7 |
| 20260506163128 | 67 | 226 | 2.0 | 6.0 | 0.00 | 0.00 | 0.00 | 40 | 1016.6 |
| 20260506162633 | 67 | 275 | 2.0 | 6.0 | 0.00 | 0.00 | 0.00 | 40 | 1016.6 |
| 20260506161907 | 67 | 279 | 1.0 | 5.0 | 0.00 | 0.00 | 0.00 | 41 | 1016.5 |
| 20260506161842 | 67 | 327 | 1.0 | 4.0 | 0.00 | 0.00 | 0.00 | 42 | 1016.5 |
| 20260506160906 | 67 | 271 | 1.0 | 4.0 | 0.00 | 0.00 | 0.00 | 41 | 1016.5 |
| 20260506160405 | 66 | 253 | 1.0 | 4.0 | 0.00 | 0.00 | 0.00 | 42 | 1016.5 |
| 20260506155906 | 66 | 261 | 1.0 | 4.0 | 0.00 | 0.00 | 0.00 | 42 | 1016.5 |
| 20260506155638 | 66 | 4 | 1.0 | 4.0 | 0.00 | 0.00 | 0.00 | 43 | 1016.5 |
| 20260506154855 | 66 | 296 | 1.0 | 3.0 | 0.00 | 0.00 | 0.00 | 44 | 1016.5 |
| 20260506154354 | 65 | 276 | 1.0 | 3.0 | 0.00 | 0.00 | 0.00 | 44 | 1016.5 |
| 20260506153855 | 65 | 272 | 0.0 | 2.0 | 0.00 | 0.00 | 0.00 | 44 | 1016.4 |
| 20260506153355 | 65 | 244 | 0.0 | 3.0 | 0.00 | 0.00 | 0.00 | 45 | 1016.4 |
| 20260506152856 | 65 | 294 | 0.0 | 3.0 | 0.00 | 0.00 | 0.00 | 45 | 1016.5 |
| 20260506152358 | 65 | 281 | 1.0 | 2.0 | 0.00 | 0.00 | 0.00 | 45 | 1016.5 |
| 20260506151855 | 64 | 275 | 1.0 | 3.0 | 0.00 | 0.00 | 0.00 | 46 | 1016.5 |
| 20260506151844 | 64 | 160 | 1.0 | 3.0 | 0.00 | 0.00 | 0.00 | 47 | 1016.5 |
| 20260506151114 | 63 | 154 | 1.0 | 4.0 | 0.00 | 0.00 | 0.00 | 49 | 1016.5 |
| 20260506150353 | 62 | 268 | 1.0 | 4.0 | 0.00 | 0.00 | 0.00 | 48 | 1016.5 |
| 20260506145854 | 62 | 179 | 1.0 | 4.0 | 0.00 | 0.00 | 0.00 | 49 | 1016.5 |
| 20260506145353 | 62 | 135 | 1.0 | 4.0 | 0.00 | 0.00 | 0.00 | 51 | 1016.5 |
| 20260506144853 | 62 | 216 | 1.0 | 4.0 | 0.00 | 0.00 | 0.00 | 50 | 1016.5 |
| 20260506144354 | 62 | 208 | 1.0 | 4.0 | 0.00 | 0.00 | 0.00 | 52 | 1016.6 |
| 20260506143854 | 62 | 227 | 1.0 | 3.0 | 0.00 | 0.00 | 0.00 | 52 | 1016.5 |
| 20260506143352 | 62 | 214 | 1.0 | 3.0 | 0.00 | 0.00 | 0.00 | 53 | 1016.6 |
| 20260506142853 | 62 | 223 | 1.0 | 3.0 | 0.00 | 0.00 | 0.00 | 52 | 1016.6 |
| 20260506142351 | 62 | 228 | 0.0 | 3.0 | 0.00 | 0.00 | 0.00 | 53 | 1016.6 |
| 20260506142113 | 62 | 170 | 0.0 | 0.0 | 0.00 | 0.00 | 0.00 | 54 | 1016.6 |